PAL2785 RPLL-RPVP

Flight info

Callsign PAL2785
Flight time N/A
Altitude 36000
Route BUCAL2R BUCAL M646 NOMYO NOMYO2W
Aircraft A321/M-SDE3FGHIRWY/LB1

Departure

Time N/A
Airport Ninoy Aquino International Airport (RPLL)

Arrival

Time 2026-04-24 19:06
Airport Puerto Princesa International Airport / PAF Antonio Bautista Air Base (RPVP)
Time Latitude Longitude Altitude Speed Heading
2026-04-24 18:54 9.76852 118.85233 9460 ft 304 kts 250°
2026-04-24 18:55 9.75435 118.81200 8789 ft 308 kts 248°
2026-04-24 18:55 9.74339 118.79373 8342 ft 304 kts 220°
2026-04-24 18:55 9.72569 118.78346 7834 ft 290 kts 190°
2026-04-24 18:56 9.70598 118.78307 7471 ft 282 kts 163°
2026-04-24 18:56 9.68871 118.79149 7123 ft 275 kts 137°
2026-04-24 18:56 9.67719 118.80647 6779 ft 269 kts 112°
2026-04-24 18:56 9.67346 118.82471 6448 ft 265 kts 87°
2026-04-24 18:57 9.67784 118.84269 6107 ft 265 kts 63°
2026-04-24 18:57 9.68879 118.85764 5767 ft 266 kts 50°
2026-04-24 18:57 9.70087 118.87178 5431 ft 265 kts 52°
2026-04-24 18:57 9.71040 118.88752 5104 ft 261 kts 68°
2026-04-24 18:58 9.71537 118.90505 4778 ft 259 kts 82°
2026-04-24 18:58 9.71565 118.92323 4445 ft 258 kts 96°
2026-04-24 18:58 9.71279 118.94123 4122 ft 259 kts 98°
2026-04-24 18:58 9.70992 118.95916 3803 ft 257 kts 98°
2026-04-24 18:59 9.70708 118.97696 3492 ft 255 kts 98°
2026-04-24 18:59 9.70425 118.99471 3174 ft 254 kts 98°
2026-04-24 18:59 9.70337 119.01236 2855 ft 250 kts 76°
2026-04-24 18:59 9.71195 119.02714 2558 ft 245 kts 38°
2026-04-24 19:00 9.72723 119.03273 2478 ft 231 kts 358°
2026-04-24 19:00 9.74152 119.02704 2495 ft 223 kts 318°
2026-04-24 19:00 9.74824 119.01350 2481 ft 224 kts 275°
2026-04-24 19:00 9.74467 118.99882 2508 ft 208 kts 241°
2026-04-24 19:01 9.73822 118.98669 2509 ft 184 kts 244°
2026-04-24 19:01 9.73474 118.97459 2507 ft 171 kts 263°
2026-04-24 19:01 9.73392 118.96286 2498 ft 164 kts 270°
2026-04-24 19:01 9.73396 118.95149 2497 ft 161 kts 272°
2026-04-24 19:02 9.73416 118.94387 2501 ft 160 kts 272°
2026-04-24 19:02 9.73470 118.92900 2501 ft 159 kts 274°
2026-04-24 19:02 9.73517 118.91779 2510 ft 159 kts 274°
2026-04-24 19:02 9.73565 118.90658 2478 ft 160 kts 274°
2026-04-24 19:03 9.73614 118.89535 2363 ft 159 kts 274°
2026-04-24 19:03 9.73663 118.88421 2180 ft 157 kts 274°
2026-04-24 19:03 9.73711 118.87315 1986 ft 156 kts 274°
2026-04-24 19:03 9.73759 118.86223 1792 ft 154 kts 274°
2026-04-24 19:04 9.73807 118.85134 1590 ft 155 kts 274°
2026-04-24 19:04 9.73855 118.84047 1388 ft 154 kts 274°
2026-04-24 19:04 9.73902 118.82966 1192 ft 153 kts 275°
2026-04-24 19:04 9.73949 118.81892 1002 ft 152 kts 274°
2026-04-24 19:05 9.73995 118.80832 806 ft 149 kts 273°
2026-04-24 19:05 9.74041 118.79797 608 ft 146 kts 273°
2026-04-24 19:05 9.74085 118.78779 409 ft 144 kts 272°
2026-04-24 19:05 9.74129 118.77775 218 ft 142 kts 272°
2026-04-24 19:06 9.74177 118.76778 92 ft 140 kts 272°
2026-04-24 19:06 9.74209 118.75995 78 ft 70 kts 271°
2026-04-24 19:06 9.74221 118.75751 79 ft 20 kts 274°
2026-04-24 19:06 9.74230 118.75612 81 ft 20 kts 273°
2026-04-24 19:07 9.74233 118.75469 80 ft 20 kts 272°
2026-04-24 19:07 9.74239 118.75324 82 ft 21 kts 273°
2026-04-24 19:07 9.74271 118.75245 85 ft 16 kts 333°
2026-04-24 19:07 9.74393 118.75243 84 ft 14 kts 325°
2026-04-24 19:08 9.74412 118.75151 85 ft 14 kts 271°
2026-04-24 19:08 9.74476 118.75113 83 ft 12 kts
2026-04-24 19:08 9.74501 118.75114 84 ft 2 kts
2026-04-24 19:08 9.74507 118.75114 84 ft 0 kts